EW5254 Weather Reports


Display with metric or nautical units.
time (UTC)temp
F
wind
direction
speed
MPH
gust
MPH
rain 1hr
in
rain 24hr
in
rain mn
in
humidity
%
barometer
mb
20260508211525 69 38 5.0 15.0 0.00 0.00 0.00 56 1000.8
20260508210024 69 355 7.0 17.0 0.00 0.00 0.00 56 1000.4
20260508204524 69 17 11.0 24.0 0.00 0.00 0.00 53 1000.2
20260508203021 72 314 9.0 24.0 0.00 0.00 0.00 47 999.8
20260508201520 76 30 12.0 21.0 0.00 0.00 0.00 44 1000.3
20260508200033 77 58 8.0 17.0 0.00 0.00 0.00 45 1000.6
20260508194516 75 68 9.0 19.0 0.00 0.00 0.00 47 1000.8
20260508193014 76 74 9.0 15.0 0.00 0.00 0.00 46 1000.9
20260508191513 74 82 11.0 16.0 0.00 0.00 0.00 50 1001.1
20260508190016 73 66 8.0 14.0 0.00 0.00 0.00 51 1001.3
20260508184513 73 55 9.0 16.0 0.00 0.00 0.00 50 1001.5
20260508183007 75 63 7.0 11.0 0.00 0.00 0.00 47 1001.8
20260508181505 78 14 1.0 9.0 0.00 0.00 0.00 42 1002.0
20260508180002 77 139 3.0 7.0 0.00 0.00 0.00 42 1002.3
20260508174559 75 171 3.0 7.0 0.00 0.00 0.00 45 1002.6
20260508173103 74 19 4.0 11.0 0.00 0.00 0.00 47 1002.7
20260508171555 74 190 4.0 13.0 0.00 0.00 0.00 48 1003.0
20260508170050 73 269 4.0 9.0 0.00 0.00 0.00 49 1003.1
20260508164546 71 242 2.0 7.0 0.00 0.00 0.00 53 1003.4
20260508163047 70 200 5.0 10.0 0.00 0.00 0.00 53 1003.6
20260508161541 70 261 3.0 7.0 0.00 0.00 0.00 56 1003.8
20260508160040 68 209 0.0 8.0 0.00 0.00 0.00 58 1004.0
20260508154535 67 233 4.0 11.0 0.00 0.00 0.00 60 1004.1
20260508153032 66 247 5.0 12.0 0.00 0.00 0.00 64 1004.1
20260508151527 65 238 4.0 10.0 0.00 0.00 0.00 67 1004.0
20260508150031 64 215 5.0 11.0 0.00 0.00 0.00 69 1004.0
20260508144536 63 217 8.0 11.0 0.00 0.00 0.00 71 1004.0
20260508143027 61 208 8.0 10.0 0.00 0.00 0.00 75 1004.1
20260508141522 60 189 6.0 10.0 0.00 0.00 0.00 79 1004.0
20260508140010 59 209 6.0 9.0 0.00 0.00 0.00 84 1004.1
20260508134507 57 205 6.0 9.0 0.00 0.00 0.00 87 1004.0
20260508133007 56 198 5.0 11.0 0.00 0.00 0.00 88 1004.1
20260508131506 55 193 6.0 11.0 0.00 0.00 0.00 88 1003.9
20260508130005 56 195 8.0 13.0 0.00 0.00 0.00 87 1003.8
20260508124503 56 157 5.0 9.0 0.00 0.00 0.00 87 1003.8
20260508123003 56 167 5.0 8.0 0.00 0.00 0.00 88 1003.7
20260508121504 54 159 2.0 7.0 0.00 0.00 0.00 89 1003.7
20260508120003 55 157 3.0 7.0 0.00 0.00 0.00 89 1003.8
20260508114504 55 130 1.0 7.0 0.00 0.00 0.00 89 1003.7
20260508113001 55 98 1.0 7.0 0.00 0.00 0.00 91 1003.7
20260508111603 55 98 2.0 6.0 0.00 0.00 0.00 92 1003.6
20260508110100 54 98 2.0 4.0 0.00 0.00 0.00 93 1003.6
20260508104604 54 98 1.0 3.0 0.00 0.00 0.00 93 1003.6
20260508103107 54 98 2.0 4.0 0.00 0.00 0.00 94 1003.5
20260508101558 54 98 3.0 6.0 0.00 0.00 0.00 93 1003.5
20260508100057 54 98 3.0 4.0 0.00 0.00 0.00 93 1003.5
20260508094555 54 98 0.0 3.0 0.00 0.00 0.00 93 1003.6
20260508093056 54 98 2.0 3.0 0.00 0.00 0.00 93 1003.7
20260508091553 54 98 2.0 6.0 0.00 0.00 0.00 93 1003.7
20260508090052 54 98 4.0 6.0 0.00 0.00 0.00 93 1003.9
20260508084549 54 112 2.0 6.0 0.00 0.00 0.00 92 1003.9
20260508083048 55 69 3.0 5.0 0.00 0.00 0.00 92 1003.8
20260508081545 55 69 2.0 5.0 0.00 0.00 0.00 91 1003.8
20260508080050 56 69 2.0 6.0 0.00 0.00 0.00 91 1003.9
20260508074541 55 103 3.0 4.0 0.00 0.00 0.00 88 1004.1
20260508073043 55 103 0.0 1.0 0.00 0.00 0.00 83 1004.4
20260508071541 56 92 6.0 8.0 0.00 0.00 0.00 85 1004.3
20260508070038 55 61 3.0 8.0 0.00 0.00 0.00 85 1004.3
20260508064556 55 49 1.0 5.0 0.00 0.00 0.00 84 1004.4
20260508063033 55 80 4.0 6.0 0.00 0.00 0.00 85 1004.6
20260508061531 55 73 3.0 5.0 0.00 0.00 0.00 85 1004.7
20260508060035 55 73 0.0 0.0 0.00 0.00 0.00 81 1004.8
20260508054540 56 73 2.0 9.0 0.00 0.00 0.00 81 1004.9
20260508053023 57 74 4.0 6.0 0.00 0.00 0.00 81 1004.8
20260508051525 56 79 4.0 6.0 0.00 0.00 0.00 82 1004.9
20260508050031 56 79 3.0 7.0 0.00 0.00 0.00 82 1005.0
20260508044520 56 46 2.0 4.0 0.00 0.00 0.00 81 1005.3
20260508043020 56 46 3.0 4.0 0.00 0.00 0.00 82 1005.2
20260508041516 56 12 0.0 3.0 0.00 0.00 0.00 80 1005.2
20260508040016 57 49 5.0 10.0 0.00 0.00 0.00 80 1005.1
20260508034523 56 16 1.0 6.0 0.00 0.00 0.00 79 1005.1
20260508033015 57 46 4.0 7.0 0.00 0.00 0.00 78 1004.6
20260508031514 57 36 4.0 6.0 0.00 0.00 0.00 77 1004.5
20260508030014 58 44 0.0 4.0 0.00 0.00 0.00 76 1004.5
20260508024519 59 61 2.0 6.0 0.00 0.00 0.00 76 1004.1
20260508023014 59 61 4.0 6.0 0.00 0.00 0.00 75 1003.9
20260508021512 59 79 4.0 10.0 0.00 0.00 0.00 74 1003.8
20260508020013 60 46 6.0 10.0 0.00 0.00 0.00 72 1003.8
20260508014512 60 54 5.0 11.0 0.00 0.00 0.00 70 1003.6
20260508013011 61 103 6.0 11.0 0.00 0.00 0.00 70 1003.6
20260508011511 62 101 7.0 13.0 0.00 0.00 0.00 68 1003.5
20260508010021 63 84 8.0 13.0 0.00 0.00 0.00 66 1003.3
20260508004516 64 66 8.0 15.0 0.00 0.00 0.00 65 1003.3
20260508003009 65 79 7.0 13.0 0.00 0.00 0.00 63 1003.3
20260508001510 65 59 8.0 15.0 0.00 0.00 0.00 63 1003.3
20260508000008 65 62 8.0 15.0 0.00 0.00 0.00 62 1003.3
20260507234513 66 49 9.0 17.0 0.00 0.00 0.00 62 1003.4
20260507233013 67 55 8.0 18.0 0.00 0.00 0.00 60 1003.2
20260507231506 67 46 8.0 16.0 0.00 0.00 0.00 59 1003.0
20260507230007 67 80 9.0 16.0 0.00 0.00 0.00 60 1003.0
20260507224509 66 76 11.0 16.0 0.00 0.00 0.00 61 1003.0
20260507223006 66 101 9.0 16.0 0.00 0.00 0.00 60 1003.3
20260507221501 66 63 6.0 16.0 0.00 0.00 0.00 62 1003.5
20260507220058 65 26 8.0 16.0 0.00 0.00 0.00 64 1003.7
20260507214557 64 35 7.0 18.0 0.00 0.00 0.00 64 1003.8
20260507213057 64 51 10.0 18.0 0.00 0.00 0.00 62 1003.8
20260507211601 64 65 10.0 16.0 0.00 0.00 0.00 62 1004.2